Temp_Advection
nan nan nan nan nan nan nan nan nan nan nan nan nan nan nan nan nan nan nan nan nan nan nan nan nan nan nan nan nan nan nan nan nan nan nan nan nan nan nan nan nan nan nan nan nan nan nan
nan 0 -0 -0 0 0 0 0 0 0 -0 -0 -0 -0 -0 -0 -0 -0 -0 0 0 -0 -0 -0 -0 -0 -0 -0 -0 -0 -0 -0 -0 -0 -0 0 0 0 -0 -0 0 0 -0 0 0 -0 nan
nan 0 -0 -0 -0 0 0 0 0 -0 -0 -0 -0 -0 -0 -0 -0 -0 -0 -0 0 -0 0 -0 -0 -0 -0 0 -0 -0 -0 -0 -0 -0 -0 0 0 0 -0 -0 0 0 -0 0 0 0 nan
nan 0 0 -0 -0 -0 -0 -0 0 -0 -0 -0 -0 -0 -0 -0 -0 -0 -0 -0 -0 -0 -0 -0 -0 -0 -0 -0 -0 -0 -0 -0 -0 -0 -0 0 0 0 0 0 0 0 -0 -0 0 0 nan
nan 0 0 0 0 -0 -0 -0 -0 0 -0 -0 0 -0 -0 -0 -0 -0 -0 -0 -0 -0 -0 -0 -0 -0 -0 -0 -0 -0 -0 -0 -0 -0 -0 0 0 0 0 -0 -0 0 0 -0 -0 0 nan
nan -0 -0 -0 -0 -0 -0 -0 -0 -0 -0 0 -0 0 0 -0 -0 -1 -0 -0 -0 -0 -0 -0 -0 -0 -0 -0 -0 -0 -0 -0 -0 -0 -0 0 0 -0 -0 -0 -0 -0 -0 -0 0 0 nan
nan -0 -0 -0 -0 -0 -0 -0 -0 -0 -0 -0 -0 -0 -0 -0 -0 -1 -1 -1 -1 -0 -1 -0 -0 -0 -0 -0 -0 -0 -0 -0 -0 -0 -0 0 -0 -0 -1 -1 0 -0 -0 0 -0 -0 nan
nan -0 -0 -0 -0 -0 0 -0 -0 -0 -0 -0 -0 -0 -0 -0 -0 -1 -1 -1 -1 -0 -1 -0 0 -0 -0 -0 -0 -0 -0 -0 -0 -0 -0 -0 -0 -1 -0 -0 -0 0 0 0 -0 0 nan
nan 0 0 -0 -0 -0 -0 -0 -0 -0 -0 -0 -0 -0 -0 -0 -0 -0 -1 -1 -0 -0 -0 -0 -0 0 -0 -0 -0 -0 -0 -0 -0 -0 0 -0 -0 0 0 -0 0 0 0 0 0 -0 nan
nan 0 0 -0 -0 -0 -0 -0 -0 -0 -0 -0 -0 -0 -0 0 -0 -0 -0 -0 0 0 -0 -1 -0 0 0 0 -0 -0 -0 -0 -0 -0 -0 -0 -0 -0 0 0 0 0 -0 0 -0 -0 nan
nan -0 0 0 -0 -0 -0 -0 0 0 0 -0 -0 -0 -0 -0 0 0 0 0 0 -0 0 -0 -0 0 0 0 0 0 0 0 -0 -0 0 -0 0 -0 -0 0 -0 0 -0 -0 -0 -0 nan
nan 0 -0 0 0 -0 -0 -0 -0 0 0 -0 -0 -0 0 -0 -0 -0 -0 -0 -0 -1 -0 -0 0 0 0 -0 -0 0 0 -0 -0 -0 0 -0 -0 0 -0 -0 -0 -0 -0 -1 -0 -0 nan
nan 1 0 0 0 -0 -0 -0 0 0 0 0 -0 -0 -0 0 -0 -0 -0 0 -0 0 -0 -0 -0 -0 0 -0 -0 -0 0 0 0 0 -0 -0 -0 0 -0 -0 -0 -0 -1 -0 -0 0 nan
nan 0 0 0 1 1 -0 -0 0 0 0 0 -0 0 0 0 -0 -0 0 -0 0 -0 -0 -0 0 0 -0 -0 0 0 0 0 -0 -0 -0 0 -0 0 0 0 0 0 -0 -0 -0 -0 nan
nan 0 1 0 1 2 1 0 0 0 0 0 0 0 0 -0 -0 0 0 -0 -0 -0 -0 -0 -0 -0 -0 0 0 0 -0 -0 0 -0 -0 -0 -0 -0 0 0 -0 0 -0 -0 -0 0 nan
nan 1 1 0 1 4 3 1 0 0 0 0 0 0 0 -0 0 0 0 -0 -0 0 -0 -0 -0 -0 -0 0 -0 0 -0 0 -0 -0 -0 0 0 -0 -0 -0 0 0 0 -0 -0 0 nan
nan 1 2 2 4 5 2 1 1 0 0 0 0 0 -0 -0 0 -0 0 -0 -0 -0 -0 -0 -0 -0 -0 -0 -0 -0 0 -0 -0 -0 -0 0 -0 -0 -0 0 0 0 -0 -0 -0 -0 nan
nan 4 6 5 3 2 1 1 0 1 0 0 -0 -0 0 0 0 0 -0 -0 -0 -0 -0 -0 -0 0 0 -0 -0 -0 0 -0 -0 -0 -0 -0 0 0 -0 -0 -0 -0 -0 -0 -0 0 nan
nan 6 4 1 1 2 1 -0 0 1 1 0 -0 -0 0 0 0 -0 -0 0 0 -0 -0 -0 0 -0 -0 -0 -0 -0 -0 -0 -0 -0 -0 -0 0 0 -0 -0 -0 0 -0 -0 -0 -0 nan
nan 3 1 1 1 1 -0 0 1 0 0 -0 0 0 0 0 -0 0 0 0 -0 0 0 -0 -0 0 -0 -0 0 -0 -0 -0 -0 -0 0 0 0 -0 -0 0 0 -0 -0 0 -0 -0 nan
nan 1 1 1 1 -0 -0 0 -0 -0 -0 0 0 -0 0 0 -0 0 0 -0 0 0 0 0 0 0 -0 0 -0 -0 -0 -0 -0 -0 -0 -0 -0 -0 -0 -0 -0 0 0 0 0 -0 nan
nan 1 1 1 0 1 -0 -0 -0 -0 -0 0 0 -0 0 -0 -0 0 0 0 0 0 0 0 0 -0 0 0 -0 0 -0 -0 -0 -0 -0 -0 0 -0 -0 -1 -0 0 0 0 -0 -0 nan
nan 1 1 1 0 0 0 -0 -0 -0 -0 0 0 -0 0 0 0 -0 -0 -0 0 0 -0 0 0 0 -0 0 0 -0 -0 -0 0 0 -0 0 0 -0 -0 -0 -0 -0 -1 -1 -0 -0 nan
nan 1 1 0 0 -0 0 0 0 0 0 -0 0 0 0 0 0 -0 0 0 0 0 -0 -0 -0 -0 0 -0 -0 -0 0 0 0 -0 0 0 -0 0 -0 -0 -0 -0 0 -0 0 -0 nan
nan -0 1 1 0 0 0 0 0 0 -0 -0 0 0 -0 -0 0 0 0 0 0 0 0 -0 0 -0 -0 -0 -0 -0 -0 -0 0 0 0 -0 0 0 -0 0 -0 -1 -0 -0 -0 -0 nan
nan 0 -0 0 1 0 0 0 0 0 0 0 0 0 0 -0 -0 0 0 0 0 0 -0 0 0 0 0 0 0 0 -0 -0 0 0 -0 0 0 0 0 -0 -0 -0 -0 -0 0 0 nan
nan -0 -0 0 0 0 0 0 0 0 0 0 0 0 0 -0 0 0 -0 0 0 -0 0 0 0 0 0 0 0 0 -0 -0 0 0 -0 -0 0 0 -0 -0 -0 -0 -1 -0 0 0 nan
nan -0 -0 -0 0 0 0 0 0 0 0 0 0 0 0 -0 0 0 0 -0 0 -0 -0 0 -0 -0 -0 0 0 0 0 0 -0 -0 0 -0 -0 0 -0 -0 -1 -0 -0 -0 -0 0 nan
nan nan nan nan nan nan nan nan nan nan nan nan nan nan nan nan nan nan nan nan nan nan nan nan nan nan nan nan nan nan nan nan nan nan nan nan nan nan nan nan nan nan nan nan nan nan nan
Wind_Speed
9 9 11 14 16 16 17 18 19 19 18 18 17 19 19 18 19 19 20 19 19 20 19 18 17 14 11 5 4 7 10 10 8 7 4 1 3 2 2 3 1 2 2 5 6 5 2
11 13 13 14 16 17 18 18 18 17 17 18 19 19 18 19 19 19 19 19 19 20 19 18 16 12 8 2 5 8 8 8 6 5 3 2 3 2 1 3 2 1 7 6 3 5 2
13 13 13 14 16 17 17 17 18 17 17 17 18 18 19 17 19 20 19 19 19 20 20 17 13 9 6 5 9 13 11 7 5 3 3 2 6 5 3 2 4 2 4 1 4 3 2
14 14 14 14 15 15 15 16 17 17 17 17 18 19 20 21 22 22 21 20 20 18 17 12 7 5 1 5 8 10 8 5 6 3 2 2 4 5 3 7 2 1 1 1 2 4 2
15 15 15 15 14 14 15 16 16 16 18 19 19 19 20 20 22 23 23 20 17 13 11 8 3 4 2 5 6 10 7 5 4 4 2 2 4 3 4 5 4 1 3 4 1 3 2
15 16 15 16 15 15 15 15 15 17 18 19 19 19 20 21 21 21 22 19 11 4 13 3 7 5 4 3 9 10 8 5 2 2 2 2 2 3 2 3 4 5 4 4 5 5 3
16 16 17 17 17 16 16 16 16 16 17 18 19 19 19 20 19 19 20 11 9 2 13 6 11 8 10 11 11 7 7 4 1 1 0 2 4 5 9 6 2 2 1 2 2 1 3
20 19 18 18 17 16 16 16 17 17 17 17 18 19 20 18 15 15 12 9 8 6 9 5 7 6 5 8 2 4 6 2 1 1 2 5 4 7 5 6 6 2 2 2 2 3 1
22 20 20 19 19 17 17 17 17 17 17 17 18 20 19 16 11 9 12 12 9 8 3 5 6 3 4 3 4 4 7 3 2 2 2 5 3 4 1 3 5 4 5 3 3 1 2
27 24 22 21 20 19 18 17 18 18 17 17 19 20 18 13 6 5 5 9 10 7 4 6 2 3 4 4 1 5 4 2 3 2 2 3 3 2 2 2 4 4 2 5 5 4 2
32 30 27 24 22 21 19 18 18 18 17 17 19 19 15 10 5 3 6 7 9 4 5 5 1 3 4 2 3 3 4 1 2 4 4 4 2 2 3 2 4 1 7 5 4 5 4
36 35 32 29 27 24 22 20 18 18 17 17 17 14 10 5 3 4 4 4 3 6 5 3 1 2 2 3 3 1 2 1 2 2 1 4 1 1 1 4 2 8 6 7 5 4 2
42 39 37 34 31 29 25 21 19 17 15 14 12 10 5 3 3 5 1 2 5 4 3 2 2 2 3 3 3 4 2 2 1 3 1 1 2 0 1 5 5 4 5 3 3 3 5
47 43 43 39 37 32 26 22 19 16 13 9 7 4 4 5 4 2 2 3 4 4 2 2 1 4 4 1 1 2 3 3 5 1 2 3 6 5 3 4 6 6 6 5 7 4 4
50 49 47 46 43 38 27 21 17 14 10 5 3 2 3 4 3 6 2 2 6 4 2 4 7 2 1 1 2 2 5 2 1 5 3 2 4 1 1 2 2 4 4 4 4 2 3
53 53 52 51 48 43 29 21 16 12 7 5 3 0 5 5 4 7 2 3 2 1 2 3 1 3 1 2 2 1 2 3 2 2 1 3 2 3 2 1 2 3 1 2 2 3 4
55 56 55 53 51 41 27 23 17 13 9 7 6 2 4 3 8 4 3 4 2 6 6 1 2 3 4 3 3 4 2 3 5 5 3 2 3 2 2 5 7 1 2 2 3 4 5
58 61 55 42 29 27 28 26 23 17 10 11 7 1 4 9 3 4 2 4 1 3 5 2 2 3 3 3 3 2 2 2 3 3 2 2 2 4 8 2 3 4 5 5 4 4 1
55 51 38 30 31 32 31 30 23 18 17 13 6 5 4 14 3 3 3 2 2 1 2 3 2 4 4 3 2 1 3 4 7 3 1 4 3 1 4 2 2 3 4 4 3 3 5
48 37 30 31 32 32 30 26 23 20 17 18 6 2 4 9 4 1 3 3 5 8 4 3 2 1 1 3 3 3 1 2 5 3 6 1 3 4 5 1 1 3 3 4 4 3 4
48 36 36 39 28 24 25 22 20 17 18 20 8 4 7 4 5 5 3 1 5 5 4 5 2 4 1 2 3 1 4 3 4 3 4 2 4 4 7 5 5 6 6 6 5 5 5
43 41 39 30 24 25 17 14 16 20 18 20 7 5 6 2 9 11 7 4 7 3 4 3 3 2 1 3 1 1 2 2 1 5 2 3 3 4 4 9 10 12 8 7 8 9 10
43 40 35 25 20 16 14 12 14 20 22 12 12 9 5 5 6 4 4 5 5 9 2 4 5 1 2 1 3 7 9 13 6 1 2 2 2 0 4 5 6 6 12 15 13 12 11
45 34 26 25 20 16 12 12 14 20 26 13 15 9 4 2 3 4 4 2 3 1 4 3 4 2 1 4 10 11 17 21 15 14 14 3 2 2 3 3 7 4 5 5 8 10 9
31 29 27 23 19 16 12 10 11 17 20 18 11 9 5 2 8 3 8 5 4 4 4 5 4 4 3 4 2 4 3 2 7 13 10 11 5 2 3 3 6 10 3 1 3 1 6
33 28 25 22 19 17 14 11 10 10 11 12 14 12 5 6 2 3 7 6 3 1 3 5 6 2 2 1 2 3 4 3 2 1 4 7 7 3 1 4 4 2 3 2 2 1 6
29 26 24 21 19 16 13 11 9 9 9 9 10 9 6 5 2 3 3 3 4 3 3 3 4 1 3 1 2 3 4 3 4 4 4 4 2 10 6 6 6 4 11 3 2 3 8
26 24 23 20 17 14 12 10 9 7 6 6 7 6 5 4 5 3 4 5 4 3 3 4 3 1 2 1 2 3 3 3 2 3 3 5 5 3 3 5 7 10 5 3 2 7 8
24 22 19 16 13 10 8 9 7 5 4 4 5 5 5 4 4 3 2 4 6 5 7 5 4 1 4 2 2 2 2 3 2 2 5 2 3 2 4 2 9 11 7 8 14 8 8
Wind_Direction
301 320 317 316 317 326 326 326 330 333 336 336 337 335 338 339 340 341 338 337 333 328 326 327 329 330 334 320 285 303 316 318 318 314 321 225 142 273 328 130 98 116 124 82 111 115 115
307 311 315 319 319 324 328 329 330 331 333 335 337 335 337 340 344 344 340 337 334 327 323 322 322 323 319 336 288 308 317 324 309 304 293 219 183 146 71 66 74 122 122 126 143 154 180
315 311 313 316 323 327 330 327 327 332 332 339 337 337 337 345 348 351 346 342 336 331 323 321 315 317 305 266 303 310 314 304 311 302 271 180 174 166 145 106 126 156 112 169 190 180 146
315 313 312 316 323 326 326 324 327 327 333 334 333 336 339 345 348 348 345 341 335 336 333 329 324 318 298 343 323 315 315 323 325 332 302 138 165 137 126 131 119 171 80 117 187 166 170
316 322 323 322 320 320 323 324 325 328 329 329 333 338 340 346 348 345 344 339 330 335 358 5 13 16 30 341 356 350 346 327 336 350 339 172 155 135 136 116 28 195 223 191 247 192 148
304 315 320 317 317 317 319 319 323 323 326 331 334 338 342 349 350 346 346 342 332 357 359 19 34 321 7 351 344 343 357 344 340 340 310 207 151 97 7 101 203 193 222 230 183 213 183
298 307 317 318 315 314 316 316 317 320 327 328 330 335 342 349 349 350 352 9 5 347 358 8 319 286 288 297 313 324 341 352 35 33 260 240 86 199 208 210 132 117 206 213 93 207 159
286 296 304 310 310 307 308 308 312 317 321 324 328 334 337 346 345 351 8 55 46 336 320 349 341 345 329 339 322 307 350 0 36 273 184 23 253 246 213 201 210 194 182 256 93 177 117
276 283 290 300 305 302 303 303 309 312 315 319 323 327 333 338 341 353 12 35 14 356 284 319 331 349 331 7 350 346 338 325 255 284 197 171 240 337 137 133 155 191 187 188 172 71 360
273 275 281 289 296 297 298 299 302 303 307 314 321 326 328 331 334 349 354 358 352 1 63 289 340 323 343 355 26 339 356 349 316 281 277 225 317 284 261 182 128 191 2 123 105 78 214
270 272 275 278 286 292 293 292 293 296 301 311 318 322 323 327 308 308 314 329 342 13 11 260 290 328 341 39 307 360 20 23 309 331 57 250 53 310 244 237 154 168 70 73 68 90 53
268 269 272 275 280 283 283 282 282 287 297 309 315 317 317 310 309 290 302 317 352 44 268 331 152 264 254 218 194 313 1 292 291 345 187 242 264 193 318 28 85 145 71 42 49 80 23
266 267 269 271 272 273 272 273 273 279 290 303 312 315 307 282 282 265 275 281 41 128 325 245 217 252 298 223 195 175 194 273 178 73 296 302 269 72 87 78 5 62 86 19 4 360 220
264 265 266 267 268 262 261 260 263 269 281 294 307 303 271 255 273 228 165 54 124 245 213 288 294 284 235 136 241 220 317 301 240 156 106 133 327 185 187 201 189 192 163 160 197 193 226
261 262 262 264 264 259 245 243 250 259 264 264 282 303 313 284 210 177 174 93 199 223 360 3 319 214 194 151 184 221 203 246 86 176 164 134 266 306 149 22 95 217 207 172 110 341 69
260 261 260 260 260 255 229 226 230 237 232 226 217 317 249 281 199 166 90 231 216 48 30 5 249 260 308 181 142 154 233 306 12 11 158 283 327 229 268 30 243 210 225 76 16 149 219
262 261 256 251 253 243 218 210 209 206 208 215 179 226 211 219 165 145 168 219 301 27 36 311 332 324 351 6 42 351 295 360 7 324 319 299 143 297 85 214 189 164 255 195 126 141 167
256 249 241 225 215 195 199 200 199 200 194 193 169 245 189 168 152 195 177 187 18 14 8 308 329 257 256 307 303 259 266 65 360 339 293 329 210 206 214 282 163 181 212 167 124 243 170
234 222 201 196 194 196 197 197 197 184 180 184 196 194 179 180 176 210 193 137 127 284 316 339 259 46 13 335 318 47 352 60 32 74 79 346 275 336 342 339 2 231 231 180 135 102 189
223 197 191 197 198 199 199 198 192 181 180 186 188 161 169 196 193 122 173 210 197 198 214 228 272 162 347 273 239 289 360 41 26 35 330 299 270 198 200 136 214 255 245 230 159 139 191
207 189 188 199 203 198 195 188 181 177 182 190 194 223 184 177 196 198 219 299 199 190 203 197 221 216 309 268 279 343 5 317 352 360 348 31 257 303 290 256 260 242 243 241 218 213 190
188 185 192 192 188 200 184 170 190 190 187 190 184 178 181 233 168 183 199 216 213 159 171 159 185 22 220 210 266 240 28 31 69 322 35 12 282 327 283 276 268 254 237 240 240 240 250
178 186 179 184 176 152 167 182 195 191 188 191 198 185 174 196 167 154 199 197 199 151 107 126 150 204 254 211 233 264 275 276 250 214 301 214 245 308 263 324 319 284 226 235 242 232 232
179 173 170 152 151 162 171 185 189 187 192 195 192 181 169 235 160 205 138 123 133 113 135 173 165 146 53 314 301 281 260 255 249 244 217 220 177 192 266 319 258 260 329 236 236 253 236
168 147 146 152 150 149 151 159 168 186 199 211 210 186 166 183 183 158 141 144 153 215 200 209 178 168 259 321 323 312 296 289 244 234 211 215 210 248 256 228 302 313 322 309 181 43 338
146 149 143 146 142 142 141 141 142 154 179 192 197 193 165 131 247 141 175 173 167 130 336 135 122 189 223 147 215 218 233 237 262 219 30 177 199 216 165 268 255 275 255 324 164 169 1
144 147 144 143 142 143 141 140 135 133 137 151 152 168 155 112 115 145 108 156 133 121 139 115 145 153 184 148 214 212 241 252 245 204 172 136 154 230 239 252 276 325 306 280 203 187 112
150 150 147 146 147 143 142 142 143 146 149 152 138 146 150 115 125 144 144 133 135 134 129 158 78 310 78 133 224 243 228 241 293 274 206 179 177 184 195 231 256 8 14 358 12 48 66
142 143 145 148 144 145 149 147 148 159 159 172 151 146 153 140 134 158 206 236 220 164 158 162 136 146 208 99 35 341 330 340 50 289 330 257 66 286 234 239 308 17 350 15 332 329 324
Height
1557 1557 1556 1554 1552 1551 1548 1546 1544 1542 1540 1538 1536 1533 1530 1528 1525 1522 1519 1516 1513 1510 1508 1506 1503 1501 1500 1500 1500 1498 1497 1497 1496 1496 1496 1497 1496 1497 1497 1496 1497 1498 1498 1500 1501 1501 1503
1555 1555 1553 1551 1550 1548 1547 1545 1544 1542 1540 1537 1534 1532 1529 1526 1523 1520 1517 1514 1511 1508 1505 1503 1501 1499 1500 1501 1499 1497 1496 1496 1496 1496 1494 1495 1496 1496 1496 1497 1498 1499 1498 1500 1501 1501 1502
1553 1552 1550 1549 1548 1546 1545 1544 1542 1541 1538 1535 1533 1531 1528 1525 1521 1518 1515 1512 1509 1505 1503 1500 1498 1497 1497 1499 1496 1496 1496 1495 1495 1494 1493 1493 1493 1495 1496 1498 1498 1500 1500 1501 1500 1501 1502
1551 1549 1548 1546 1545 1544 1543 1542 1540 1539 1536 1534 1531 1529 1526 1522 1518 1516 1513 1509 1506 1503 1501 1498 1497 1495 1495 1496 1495 1494 1494 1494 1494 1494 1495 1493 1493 1495 1495 1498 1499 1501 1500 1504 1500 1500 1500
1549 1547 1545 1544 1543 1542 1541 1540 1539 1537 1535 1533 1530 1527 1523 1520 1517 1513 1510 1507 1503 1501 1500 1498 1498 1497 1496 1496 1495 1494 1494 1493 1494 1494 1495 1495 1494 1495 1498 1500 1510 1500 1513 1503 1502 1499 1500
1546 1545 1544 1542 1541 1540 1539 1538 1537 1535 1533 1531 1529 1525 1522 1518 1514 1511 1508 1505 1502 1501 1499 1498 1498 1500 1498 1497 1495 1494 1493 1493 1492 1492 1493 1495 1495 1496 1500 1503 1522 1507 1504 1496 1499 1500 1499
1543 1542 1540 1539 1539 1538 1537 1536 1534 1533 1531 1530 1527 1524 1520 1517 1514 1510 1507 1504 1504 1503 1501 1503 1504 1502 1500 1497 1497 1495 1493 1493 1492 1493 1496 1495 1502 1505 1495 1495 1490 1490 1494 1493 1501 1499 1499
1539 1539 1538 1537 1535 1535 1534 1533 1532 1530 1529 1527 1525 1523 1520 1517 1514 1511 1509 1505 1508 1511 1505 1502 1502 1501 1499 1497 1496 1496 1496 1496 1494 1494 1492 1500 1502 1491 1488 1489 1492 1492 1494 1497 1499 1499 1499
1535 1535 1535 1534 1533 1532 1531 1530 1529 1528 1527 1525 1522 1521 1519 1516 1514 1513 1509 1510 1510 1508 1510 1503 1501 1499 1499 1498 1497 1496 1496 1495 1495 1495 1493 1500 1493 1489 1488 1488 1492 1492 1496 1493 1498 1498 1499
1531 1531 1531 1531 1530 1529 1528 1526 1526 1525 1524 1522 1520 1518 1517 1515 1516 1513 1511 1510 1509 1506 1514 1509 1502 1502 1500 1498 1498 1497 1495 1498 1497 1497 1493 1494 1493 1493 1491 1490 1494 1497 1491 1493 1495 1509 1522
1526 1526 1526 1526 1526 1525 1524 1523 1523 1522 1521 1519 1517 1515 1515 1512 1513 1514 1514 1511 1509 1508 1537 1506 1503 1503 1501 1500 1500 1498 1497 1497 1498 1499 1498 1498 1494 1497 1495 1492 1489 1498 1496 1500 1503 1518 1525
1519 1520 1519 1520 1521 1521 1520 1520 1519 1518 1518 1516 1515 1513 1512 1512 1510 1512 1511 1511 1510 1523 1534 1509 1500 1499 1501 1499 1498 1499 1498 1498 1497 1497 1495 1496 1492 1492 1494 1494 1490 1496 1502 1509 1515 1526 1551
1509 1512 1513 1513 1514 1515 1516 1515 1515 1514 1513 1512 1512 1511 1509 1509 1510 1510 1510 1512 1523 1541 1504 1504 1501 1498 1498 1497 1496 1497 1498 1501 1501 1508 1501 1496 1497 1493 1493 1498 1497 1497 1507 1537 1535 1553 1528
1500 1501 1504 1505 1506 1507 1509 1509 1509 1510 1509 1509 1509 1508 1507 1506 1508 1510 1511 1513 1523 1510 1501 1498 1497 1497 1499 1495 1497 1496 1498 1501 1497 1495 1506 1514 1517 1497 1493 1495 1497 1500 1501 1518 1541 1530 1521
1489 1492 1494 1495 1496 1499 1501 1504 1505 1506 1506 1506 1506 1506 1506 1506 1506 1508 1512 1523 1515 1506 1501 1502 1498 1497 1496 1496 1497 1496 1497 1497 1494 1494 1504 1508 1501 1493 1491 1493 1495 1498 1502 1495 1510 1505 1526
1477 1479 1482 1484 1486 1489 1493 1496 1500 1503 1503 1504 1504 1504 1505 1506 1505 1508 1511 1508 1504 1502 1502 1501 1501 1495 1497 1495 1497 1498 1493 1496 1495 1494 1494 1495 1503 1497 1495 1493 1493 1494 1492 1505 1512 1524 1518
1465 1467 1469 1472 1475 1478 1483 1489 1494 1498 1501 1501 1504 1504 1504 1504 1506 1507 1514 1508 1503 1502 1503 1503 1501 1500 1500 1498 1496 1498 1495 1499 1497 1496 1494 1495 1497 1499 1499 1496 1494 1497 1495 1493 1501 1511 1533
1453 1456 1459 1463 1469 1472 1476 1481 1486 1491 1495 1500 1501 1505 1502 1503 1507 1504 1506 1503 1504 1504 1503 1502 1501 1500 1501 1499 1498 1499 1495 1496 1495 1497 1496 1495 1495 1503 1493 1487 1485 1487 1489 1490 1514 1507 1519
1446 1447 1452 1457 1462 1465 1468 1473 1480 1484 1489 1496 1498 1499 1501 1501 1507 1503 1499 1501 1502 1502 1503 1503 1500 1502 1501 1501 1501 1497 1496 1498 1498 1497 1500 1498 1497 1507 1494 1491 1487 1488 1485 1484 1489 1498 1501
1440 1447 1451 1456 1460 1460 1464 1470 1473 1481 1485 1492 1496 1498 1498 1499 1498 1498 1498 1499 1499 1500 1502 1501 1501 1500 1502 1501 1499 1498 1498 1498 1499 1499 1500 1497 1495 1494 1499 1486 1485 1486 1482 1482 1486 1506 1495
1431 1441 1445 1450 1456 1461 1462 1465 1472 1479 1483 1489 1490 1490 1488 1494 1496 1497 1498 1498 1495 1498 1500 1499 1499 1500 1500 1504 1500 1499 1499 1498 1498 1499 1499 1500 1500 1493 1488 1486 1484 1482 1481 1480 1484 1486 1492
1427 1434 1440 1447 1454 1458 1461 1466 1471 1476 1482 1485 1487 1488 1488 1489 1489 1493 1495 1496 1496 1496 1498 1498 1499 1501 1501 1503 1501 1500 1502 1502 1501 1501 1501 1501 1502 1502 1497 1486 1481 1480 1479 1479 1479 1477 1476
1421 1429 1433 1445 1453 1458 1462 1466 1470 1474 1479 1479 1482 1484 1486 1486 1488 1490 1491 1491 1492 1493 1498 1496 1499 1501 1500 1500 1503 1503 1502 1502 1502 1505 1502 1502 1501 1502 1497 1490 1485 1486 1475 1470 1467 1466 1466
1418 1427 1436 1443 1450 1457 1462 1465 1467 1471 1474 1475 1478 1482 1485 1487 1486 1486 1488 1490 1493 1495 1497 1498 1500 1500 1502 1500 1499 1497 1496 1495 1496 1496 1497 1498 1501 1504 1499 1492 1490 1468 1464 1462 1463 1461 1461
1424 1432 1439 1446 1450 1455 1461 1466 1466 1469 1472 1475 1478 1480 1480 1484 1483 1485 1487 1488 1491 1493 1495 1496 1496 1499 1499 1500 1501 1499 1496 1492 1489 1487 1490 1493 1495 1498 1495 1493 1481 1467 1463 1462 1461 1464 1462
1428 1435 1442 1448 1453 1456 1461 1465 1467 1468 1471 1473 1476 1477 1480 1481 1485 1485 1486 1487 1491 1492 1493 1494 1496 1498 1499 1499 1499 1504 1498 1487 1486 1486 1485 1489 1490 1492 1498 1490 1485 1467 1463 1462 1460 1468 1467
1431 1439 1444 1450 1453 1458 1461 1464 1467 1469 1472 1473 1474 1476 1479 1481 1484 1484 1486 1488 1490 1489 1492 1494 1495 1497 1498 1499 1499 1498 1498 1486 1489 1484 1490 1494 1496 1489 1494 1489 1482 1470 1465 1462 1467 1472 1466
1437 1443 1448 1451 1457 1459 1462 1464 1467 1471 1474 1474 1474 1476 1478 1481 1483 1484 1486 1487 1490 1489 1493 1493 1496 1498 1499 1504 1500 1495 1493 1490 1487 1484 1483 1488 1490 1493 1494 1490 1489 1470 1466 1469 1472 1468 1467
1440 1445 1449 1454 1457 1461 1462 1465 1467 1473 1472 1475 1476 1476 1478 1480 1483 1484 1484 1487 1489 1490 1491 1491 1493 1494 1494 1499 1501 1499 1495 1495 1495 1496 1484 1486 1486 1488 1481 1473 1467 1470 1471 1471 1471 1470 1468